ROMMA est une association bénévole à but non lucratif. Votre soutien est indispensable : ADHERER à ROMMA ou FAIRE un DON

La Ferrière - (38, Isère)

Belledonne - Vallée du Haut Bréda (1000 m)   Longitude: 06° 04' 55" E   Latitude: 45° 18' 16" N Station romma n°33
 

Détail journalier du     <<     >>

Température Precipitation Humidité Pression Vent Dir Rafale Dir. rafale
Heure (°C) (mm) (%) (hPa) (km/h) (km/h)
01:00 5.709010191S7S
02:00 5.609110193S7S
03:00 5.209210191S4S
04:00 5.009210191S5S
05:00 4.809310192S5S
06:00 5.309310182S6S
07:00 5.109310184S8S
08:00 5.109410182NNE5NNE
09:00 5.809410181NNE7NNE
10:00 7.309410181NNE5NNE
11:00 10.709410182NNE7NNE
12:00 14.308810183NNE7NNE
13:00 17.707310183NNE8NNE
14:00 17.607010183NNE8NNE
15:00 20.106410184O10O
16:00 21.006210183O8O
17:00 18.406510183O7O
18:00 16.607210192O7O
19:00 14.107710191O4O
20:00 13.3081101901O
21:00 11.908410191O4O
22:00 10.308610191O4O
23:00 9.108810191O7O
minuit 8.5090101907O

Graphique du 12-10-2019

 

Serveur OMMA